• în România
  • Lista ţărilor
  • Pe 7 zile
  • Temperatura apei
  • Hartă satelitară
  • Meteo pe hartă
  • Widget-uri
  • user-avatar
    Intrare

    Meteo pe oră la Bucureşti

    Astăzi, 29 Iunie, Joi

    Timp Temperatura Precipitaţii Vânt Presiune Umiditate
    00:00 +24°C° 0 mm 2 m/s 750 mmHg 71%
    01:00 +23°C° 0 mm 2 m/s 750 mmHg 75%
    02:00 +23°C° 0 mm 2 m/s 750 mmHg 78%
    03:00 +23°C° 0 mm 2 m/s 750 mmHg 80%
    04:00 +21°C° 0 mm 2 m/s 750 mmHg 81%
    05:00 +21°C° 0 mm 2 m/s 750 mmHg 83%
    06:00 +24°C° 0 mm 2 m/s 750 mmHg 76%
    07:00 +26°C° 0 mm 2 m/s 750 mmHg 69%
    08:00 +28°C° 0 mm 2 m/s 750 mmHg 62%
    09:00 +30°C° 0 mm 2 m/s 750 mmHg 56%
    10:00 +32°C° 0 mm 2 m/s 750 mmHg 50%
    11:00 +35°C° 0 mm 2 m/s 750 mmHg 44%
    12:00 +36°C° 0 mm 2 m/s 750 mmHg 40%
    13:00 +37°C° 0 mm 2 m/s 749 mmHg 36%
    14:00 +39°C° 0 mm 3 m/s 749 mmHg 31%
    15:00 +39°C° 0 mm 3 m/s 748 mmHg 31%
    16:00 +39°C° 0 mm 3 m/s 748 mmHg 30%
    17:00 +39°C° 0 mm 3 m/s 748 mmHg 29%
    18:00 +37°C° 0 mm 3 m/s 748 mmHg 34%
    19:00 +35°C° 0 mm 3 m/s 747 mmHg 39%
    20:00 +33°C° 0 mm 3 m/s 747 mmHg 44%
    21:00 +32°C° 0 mm 4 m/s 748 mmHg 46%
    22:00 +30°C° 0 mm 4 m/s 748 mmHg 47%
    23:00 +30°C° 0 mm 5 m/s 749 mmHg 49%

    Mâine, 30 Iunie, Vineri

    Timp Temperatura Precipitaţii Vânt Presiune Umiditate
    00:00 +28°C° 0 mm 4 m/s 749 mmHg 49%
    01:00 +27°C° 0 mm 4 m/s 749 mmHg 50%
    02:00 +26°C° 0 mm 3 m/s 750 mmHg 50%
    03:00 +26°C° 0 mm 3 m/s 750 mmHg 51%
    04:00 +25°C° 0 mm 3 m/s 750 mmHg 51%
    05:00 +24°C° 0 mm 3 m/s 751 mmHg 52%
    06:00 +26°C° 0 mm 3 m/s 751 mmHg 49%
    07:00 +28°C° 0 mm 3 m/s 751 mmHg 46%
    08:00 +30°C° 0 mm 3 m/s 752 mmHg 43%
    09:00 +33°C° 0 mm 3 m/s 752 mmHg 38%
    10:00 +34°C° 0 mm 3 m/s 752 mmHg 34%
    11:00 +36°C° 0 mm 3 m/s 752 mmHg 29%
    12:00 +37°C° 0 mm 4 m/s 752 mmHg 27%
    13:00 +38°C° 0 mm 4 m/s 751 mmHg 26%
    14:00 +40°C° 0 mm 4 m/s 751 mmHg 24%
    15:00 +40°C° 0 mm 4 m/s 751 mmHg 24%
    16:00 +40°C° 0 mm 4 m/s 751 mmHg 25%
    17:00 +39°C° 0 mm 3 m/s 751 mmHg 25%
    18:00 +36°C° 0 mm 3 m/s 751 mmHg 31%
    19:00 +32°C° 0 mm 2 m/s 751 mmHg 38%
    20:00 +29°C° 0 mm 1 m/s 751 mmHg 44%
    21:00 +29°C° 0 mm 1 m/s 751 mmHg 43%
    22:00 +28°C° 0 mm 2 m/s 751 mmHg 42%
    23:00 +28°C° 0 mm 2 m/s 752 mmHg 41%

    Poimâine, 1 Iulie, Sâmbătă

    Timp Temperatura Precipitaţii Vânt Presiune Umiditate
    00:00 +27°C° 0 mm 2 m/s 752 mmHg 42%
    01:00 +27°C° 0 mm 2 m/s 752 mmHg 43%
    02:00 +26°C° 0 mm 2 m/s 752 mmHg 45%
    03:00 +26°C° 0 mm 2 m/s 751 mmHg 45%
    04:00 +26°C° 0 mm 2 m/s 751 mmHg 46%
    05:00 +26°C° 0 mm 3 m/s 751 mmHg 47%
    06:00 +28°C° 0 mm 3 m/s 751 mmHg 44%
    07:00 +30°C° 0 mm 3 m/s 751 mmHg 41%
    08:00 +33°C° 0 mm 3 m/s 750 mmHg 38%
    09:00 +36°C° 0 mm 4 m/s 750 mmHg 33%
    10:00 +38°C° 0 mm 4 m/s 750 mmHg 28%
    11:00 +42°C° 0 mm 5 m/s 750 mmHg 24%
    12:00 +43°C° 0 mm 5 m/s 749 mmHg 21%
    13:00 +45°C° 0 mm 5 m/s 749 mmHg 19%
    14:00 +46°C° 0 mm 5 m/s 748 mmHg 17%
    15:00 +46°C° 0 mm 5 m/s 748 mmHg 18%
    16:00 +45°C° 0 mm 5 m/s 747 mmHg 19%
    17:00 +45°C° 0 mm 5 m/s 747 mmHg 20%
    18:00 +41°C° 0 mm 4 m/s 747 mmHg 26%
    19:00 +36°C° 0 mm 4 m/s 747 mmHg 33%
    20:00 +33°C° 0 mm 3 m/s 747 mmHg 39%
    21:00 +31°C° 0 mm 3 m/s 748 mmHg 41%
    22:00 +30°C° 0 mm 3 m/s 748 mmHg 44%
    23:00 +29°C° 0 mm 3 m/s 748 mmHg 47%

    2 Iulie, Duminică

    Timp Temperatura Precipitaţii Vânt Presiune Umiditate
    00:00 +28°C° 0 mm 4 m/s 748 mmHg 50%
    01:00 +27°C° 0 mm 4 m/s 748 mmHg 53%
    02:00 +27°C° 0 mm 5 m/s 748 mmHg 57%
    03:00 +26°C° 0 mm 5 m/s 748 mmHg 61%
    04:00 +25°C° 0 mm 5 m/s 748 mmHg 65%
    05:00 +23°C° 0 mm 4 m/s 749 mmHg 69%
    06:00 +25°C° 0 mm 5 m/s 749 mmHg 66%
    07:00 +26°C° 0 mm 5 m/s 749 mmHg 63%
    08:00 +27°C° 0 mm 5 m/s 749 mmHg 61%
    09:00 +29°C° 0 mm 5 m/s 749 mmHg 56%
    10:00 +30°C° 0 mm 4 m/s 749 mmHg 52%
    11:00 +33°C° 0 mm 4 m/s 748 mmHg 48%
    12:00 +33°C° 0 mm 3 m/s 748 mmHg 45%
    13:00 +34°C° 0 mm 3 m/s 748 mmHg 42%
    14:00 +35°C° 0 mm 2 m/s 747 mmHg 40%
    15:00 +35°C° 0,2 mm 3 m/s 747 mmHg 41%
    16:00 +35°C° 0,2 mm 3 m/s 747 mmHg 42%
    17:00 +35°C° 0,2 mm 3 m/s 747 mmHg 43%
    18:00 +33°C° 0,4 mm 3 m/s 747 mmHg 48%
    19:00 +30°C° 0,4 mm 4 m/s 747 mmHg 53%
    20:00 +29°C° 0,4 mm 4 m/s 747 mmHg 59%
    21:00 +27°C° 5,1 mm 4 m/s 747 mmHg 67%
    22:00 +25°C° 5,1 mm 3 m/s 748 mmHg 76%
    23:00 +24°C° 5,1 mm 3 m/s 749 mmHg 85%

    3 Iulie, Luni

    Timp Temperatura Precipitaţii Vânt Presiune Umiditate
    00:00 +22°C° 2,3 mm 3 m/s 749 mmHg 85%
    01:00 +21°C° 2,3 mm 3 m/s 749 mmHg 85%
    02:00 +20°C° 2,3 mm 3 m/s 749 mmHg 86%
    03:00 +20°C° 0,7 mm 3 m/s 749 mmHg 86%
    04:00 +20°C° 0,7 mm 3 m/s 749 mmHg 85%
    05:00 +19°C° 0,7 mm 3 m/s 749 mmHg 85%
    06:00 +20°C° 0 mm 3 m/s 749 mmHg 82%
    07:00 +20°C° 0 mm 3 m/s 750 mmHg 80%
    08:00 +21°C° 0 mm 3 m/s 750 mmHg 77%
    09:00 +21°C° 0,2 mm 3 m/s 750 mmHg 76%
    10:00 +21°C° 0,2 mm 3 m/s 750 mmHg 75%
    11:00 +21°C° 0,2 mm 3 m/s 751 mmHg 74%
    12:00 +21°C° 0,8 mm 3 m/s 751 mmHg 76%
    13:00 +21°C° 0,8 mm 2 m/s 751 mmHg 77%
    14:00 +21°C° 0,8 mm 2 m/s 751 mmHg 79%
    15:00 +21°C° 0,5 mm 2 m/s 751 mmHg 81%
    16:00 +21°C° 0,5 mm 2 m/s 751 mmHg 83%
    17:00 +21°C° 0,5 mm 3 m/s 751 mmHg 85%
    18:00 +20°C° 0,2 mm 2 m/s 752 mmHg 86%
    19:00 +20°C° 0,2 mm 2 m/s 752 mmHg 88%
    20:00 +19°C° 0,2 mm 2 m/s 752 mmHg 89%
    21:00 +19°C° 0,2 mm 2 m/s 753 mmHg 89%
    22:00 +19°C° 0,2 mm 1 m/s 753 mmHg 89%
    23:00 +18°C° 0,2 mm 1 m/s 753 mmHg 90%

    4 Iulie, Marţi

    Timp Temperatura Precipitaţii Vânt Presiune Umiditate
    00:00 +18°C° 0,2 mm 1 m/s 753 mmHg 89%
    01:00 +18°C° 0,2 mm 1 m/s 754 mmHg 89%
    02:00 +17°C° 0,2 mm 2 m/s 754 mmHg 88%
    03:00 +16°C° 0,1 mm 2 m/s 754 mmHg 88%
    04:00 +16°C° 0,1 mm 2 m/s 755 mmHg 88%
    05:00 +15°C° 0,1 mm 2 m/s 755 mmHg 88%
    06:00 +16°C° 0 mm 3 m/s 755 mmHg 83%
    07:00 +17°C° 0 mm 3 m/s 755 mmHg 78%
    08:00 +17°C° 0 mm 3 m/s 755 mmHg 74%
    09:00 +18°C° 0 mm 3 m/s 755 mmHg 70%
    10:00 +20°C° 0 mm 3 m/s 755 mmHg 66%
    11:00 +21°C° 0 mm 2 m/s 755 mmHg 62%
    12:00 +23°C° 0 mm 2 m/s 755 mmHg 59%
    13:00 +24°C° 0 mm 2 m/s 754 mmHg 56%
    14:00 +26°C° 0 mm 2 m/s 754 mmHg 54%
    15:00 +26°C° 0 mm 2 m/s 754 mmHg 52%
    16:00 +26°C° 0 mm 2 m/s 753 mmHg 51%
    17:00 +27°C° 0 mm 2 m/s 753 mmHg 50%
    18:00 +25°C° 0 mm 2 m/s 753 mmHg 56%
    19:00 +24°C° 0 mm 2 m/s 753 mmHg 61%
    20:00 +21°C° 0 mm 2 m/s 753 mmHg 67%
    21:00 +20°C° 0 mm 2 m/s 754 mmHg 68%
    22:00 +20°C° 0 mm 2 m/s 754 mmHg 70%
    23:00 +19°C° 0 mm 2 m/s 754 mmHg 71%
    Arată mai mult